www.pogodaiklimat.ru

Погода и климат >> Архив погоды >> Россия >> Ямало-Ненецкий АО >> Ныда


ПОГОДА в Ныде

  • Прогноз погоды в Ныде
  • Монитор погоды в Ныде
  • Климат города

АРХИВ ПОГОДЫ в Ныде

Время (UTC), дата Ветер
(напр.,м/с)
 
Видим.   Явления Облачность Т
(С)
Тd
(С)
f
(%)
Тe
(С)
Тes
(С)
Комфортность P
(гПа)
Po
(гПа)
Тmin
(С)
Tmax
(С)
R
(мм)
R24
(мм)
S
(см)
21 15.10 Ю 6 10 км {ливн. осадки} 9/9 300 м
[Sc]
-1.0 -2.0 93 -8 -8 1014.1 1013.2
00 16.10 Ю 8-12
{12}
10 км {ливн. осадки} 8/6 300 м
[Sc Ac trans]
-2.2 -3.8 89 -10 -10 1011.8 1010.9
03 16.10 Ю 11-16
{16}
10 км позёмок {метель} 9/9 300 м
[Sc]
-1.9 -3.7 87 -11 -11 1009.1 1008.2 -2.5 0.5 2
06 16.10 ЮЗ 11-16
{16}
2000 м слабый снег {метель} 10/0 300 м
[As op]
-2.3 -3.5 91 -12 -12 1004.9 1004.0
09 16.10 ЮЗ 13-16
{18}
2000 м слабый снег {метель} 10/10 300 м
[Sc]
-1.8 -2.9 92 1000.8 999.9
12 16.10 ЮЗ 11-15
{19}
2000 м слабый снег {метель} 10/10 300 м
[Sc]
-1.3 -2.3 93 -10 -10 997.3 996.4
15 16.10 ЮЗ 11-15
{16}
10 км {снег, метель} 10/10 300 м
[Sc]
+0.1 -0.9 93 -9 -9 994.6 993.7 +0.1 1
18 16.10 ЮЗ 11-14
{15}
10 км {снег, метель} 8/8 300 м
[Sc]
+1.0 -0.5 90 -7 -7 992.1 991.2
21 16.10 ЮЗ 12-15
{18}
10 км 9/9 300 м
[Sc]
+1.4 -0.8 85 -7 -7 990.7 989.8
00 17.10 З 11-15
{18}
10 км 10/10 300 м
[Sc]
+1.7 -0.5 85 -6 -6 988.9 988.0
03 17.10 ЮЗ 9-12
{15}
10 км 9/8 300 м
[Sc Ac trans]
+1.5 -0.5 87 -6 -6 988.8 987.9 +0.1 1
06 17.10 З 9-12
{15}
10 км 9/6 300 м
[Sc Ac trans]
+1.5 -1.0 83 -6 -6 990.0 989.1
09 17.10 З 7
{13}
10 км 9/8 300 м
[Sc Ac trans]
+1.4 -1.3 82 -5 -5 992.2 991.3
12 17.10 З 6
{13}
2000 м слабый снег {ливн. осадки} 10/0
[As op]
+0.7 -0.1 94 -6 -6 993.9 993.0
15 17.10 СЗ 7 4000 м слабый ливневой снег 9/9 300 м
[Cb cap]
+0.5 -0.2 95 -7 -7 997.0 996.1 +1.8 0.4
18 17.10 СЗ 6
{10}
10 км в посл. час ливневой дождь {снег} 9/9 300 м
[Cb cap]
+0.8 -0.4 92 -6 -6 999.4 998.5
21 17.10 С 8-10
{11}
10 км 8/8 300 м
[Cb cap]
+0.7 -0.9 89 -7 -7 1001.5 1000.6
00 18.10 С 9-12
{12}
10 км 8/8 300 м
[Cb cap]
+0.6 -1.2 88 -7 -7 1003.7 1002.8
03 18.10 С 9-13
{13}
10 км 9/8 300 м
[Sc Ac trans]
+0.4 -2.2 83 -7 -7 1005.8 1004.9 +0.4 0.0 0
06 18.10 С 10-13
{14}
10 км 9/9 300 м
[Sc]
+0.3 -3.1 78 -8 -8 1006.7 1005.8 +0.3
09 18.10 С 7-10
{13}
10 км 5/3 600 м
[Sc Ac trans]
+0.4 -4.3 71 -6 -6 1008.2 1007.3
12 18.10 С 5
{13}
10 км 8/8 300 м
[Sc]
-0.0 -4.6 71 -6 -6 1009.6 1008.7
15 18.10 С 4 10 км {ливн. осадки} 4/4 300 м
[Cb cap]
-0.4 -4.5 74 -6 -6 1010.3 1009.4 +0.4 0.2
18 18.10 СЗ 2 10 км {ливн. осадки} 6/4 300 м
[Cb cap Ac trans]
-0.4 -3.5 80 -4 -4 1010.1 1009.2
21 18.10 С 3 10 км 8/6 300 м
[Sc Ac trans]
-0.3 -4.3 74 -5 -5 1009.8 1008.9
00 19.10 В 1 10 км {снег} 10/10 300 м
[Sc]
-2.8 -4.0 91 -5 -5 1010.3 1009.4
03 19.10 штиль 0 10 км 9/6 300 м
[Sc Ac trans Ci fib]
-2.7 -3.7 93 -4 -4 1009.9 1009.0 -3.4 1 3
06 19.10 ЮЗ 2 10 км 8/3 300 м
[Cb cap Ac trans Ci fib]
-2.6 -4.7 85 -7 -6 1009.6 1008.7
09 19.10 СВ 1 20 км 8/3 300 м
[Sc Ac trans Ci sp]
-2.3 -4.8 83 -4 -4 1009.4 1008.5
12 19.10 СВ 2 4000 м дымка 9/6 300 м
[Sc Ac trans Ci sp]
-4.0 -5.0 93 -8 -8 1009.6 1008.7
15 19.10 СВ 2 4000 м дымка 10/10 300 м
[Sc]
-4.6 -5.5 93 -9 -9 1009.2 1008.3 -2.0
18 19.10 В 2 2000 м дымка 10/10 300 м
[St]
-5.3 -6.0 95 -10 -10 1008.7 1007.8
21 19.10 Ю 1 10 км 10/10 300 м
[Sc]
-4.5 -5.8 91 -7 -7 1009.0 1008.1
00 20.10 штиль 0 4000 м дымка 10/10 300 м
[Sc]
-5.0 -5.9 93 -6 -6 1008.6 1007.7
03 20.10 СВ 2 10 км 8/5 300 м
[Sc Ac trans Ci sp]
-5.8 -7.2 90 -10 -10 1008.6 1007.7 -5.8 3
06 20.10 СВ 2 10 км 9/8 300 м
[Sc Ac trans Ci fib]
-3.1 -5.7 82 -7 -7 1008.7 1007.8 -6.5
09 20.10 СВ 4 10 км {снег} 8/3 300 м
[Sc Ac trans Ci fib]
-2.5 -7.2 70 -8 -8 1009.0 1008.1
12 20.10 В 5 10 км {снег} 9/8 300 м
[Sc Ac trans]
-3.7 -7.7 74 -10 -10 1009.4 1008.5
15 20.10 ЮВ 1 10 км 8/8 300 м
[Sc]
-7.3 -9.1 87 -10 -10 1009.5 1008.6 -2.0 0.2
18 20.10 СВ 4 10 км 8/8 300 м
[Sc]
-8.0 -9.2 91 -15 -15 1009.4 1008.5
21 20.10 СВ 3 4000 м дымка 10/10 300 м
[St]
-6.9 -7.9 93 -13 -13 1009.3 1008.4
00 21.10 СВ 5 10 км 10/10 300 м
[Sc]
-4.7 -5.9 91 -12 -12 1009.1 1008.2
03 21.10 СВ 7-10
{10}
4000 м слабый снег {метель} 10/10 300 м
[Sc]
-3.6 -5.2 89 -12 -12 1009.3 1008.4 -10.4 0.3 3
06 21.10 СВ 6
{10}
10 км {ливн. осадки, снег} 9/8 300 м
[Cb cap Ac trans]
-2.9 -6.2 78 -10 -10 1009.8 1008.9
09 21.10 СВ 6
{10}
10 км 8/5 300 м
[Sc Ac trans]
-3.3 -6.0 82 -11 -11 1010.0 1009.1
12 21.10 СВ 6
{10}
10 км 9/8 300 м
[Sc Ac trans]
-3.5 -5.9 83 -11 -11 1010.9 1010.0
15 21.10 СВ 6
{10}
10 км 9/8 300 м
[Sc Ac trans]
-3.5 -5.9 83 -11 -11 1010.9 1010.0
18 21.10 СВ 5
{10}
10 км 10/10 300 м
[Sc]
-2.8 -5.6 81 -9 -9 1011.6 1010.7
21 21.10 С 3 10 км {снег} 10/10 300 м
[Sc]
-3.4 -5.5 85 -9 -9 1011.5 1010.6
00 22.10 В 2 10 км {снег} 9/9 300 м
[Sc]
-4.5 -6.6 85 -9 -9 1011.2 1010.3
03 22.10 Ю 2 10 км 8/6 300 м
[Sc Ac trans]
-7.2 -8.4 91 -12 -12 1010.9 1010.0 -7.2 0.0 3
06 22.10 ЮЗ 2 20 км 8/8 300 м
[Sc]
-2.9 -5.9 80 -7 -7 1010.4 1009.5 -7.9
09 22.10 З 4 20 км 9/9 600 м
[Sc]
-2.9 -7.2 72 -9 -9 1009.7 1008.8
12 22.10 Ю 2 4000 м дымка 9/9 300 м
[Cb cap]
-3.8 -4.8 93 -8 -8 1009.0 1008.1
15 22.10 Ю 2 4000 м дымка 10/10 300 м
[Sc]
-3.6 -4.4 94 -8 -8 1007.1 1006.2 -2.3

 

Местоположение метеостанции Ныда (Ямало-Ненецкий АО, Россия): широта 66.63 долгота 72.93 высота над уровнем моря 7 м.

В архиве по умолчанию представлена погода в Ныде за последнюю неделю. Архивные данные за месяц целиком и за предыдущие месяцы, начиная с января 2011 года, Вы можете получить, выбрав интересующий диапазон дат из раскрывающегося списка и нажав кнопку "Ввод!".


*Определитесь, кто Вы:
робот инопланетянин человек

Внимание! Время в таблицах - всемирное. Для получения местного времени необходимо прибавить поправку, которая в Ныде равна 5 ч.

Смотрите также архив погоды в соседних городах и на ближайших метеорологических станциях:

Погода в Пангодах (Ямало-Ненецкий АО, Россия) (113 км)
Погода в Новом Порте (Ямало-Ненецкий АО, Россия) (117 км)
Погода в Надыме (Ямало-Ненецкий АО, Россия) (130 км)
Погода в Новом Уренгое (Ямало-Ненецкий АО, Россия) (181 км)
Погода в Полуе (Ямало-Ненецкий АО, Россия) (201 км)
Погода в Белоярске (Ямало-Ненецкий АО, Россия) (212 км)
Погода в Лонг-Югане (Ямало-Ненецкий АО, Россия) (226 км)
Погода в Уренгое (Ямало-Ненецкий АО, Россия) (256 км)
Погода в Тазовском (Ямало-Ненецкий АО, Россия) (268 км)
Погода в Салехарде (Ямало-Ненецкий АО, Россия) (277 км)

Пояснения к столбцам:

Ветер - указаны скорость ветра в м/с - средняя за 10 мин, порывы в срок и между сроками (в фигурных скобках) и направление, откуда дует ветер: С - северный, СВ - северо-восточный, В - восточный, ЮВ - юго-восточный, Ю - южный, ЮЗ - юго-западный, З - западный, СЗ - северо-западный.
Видимость - горизонтальная дальность видимости в метрах или километрах. При видимости от 1 до 10 км при отсутствии осадков обычно наблюдается дымка, при ухудшении видимости до 1 км и менее - туман. В сухую погоду видимость может ухудшаться дымом, пылью или мглою.
Явления - указаны атмосферные явления, наблюдавшиеся в срок или в последний час перед сроком; фигурными скобками обозначены явления, наблюдавшиеся между сроками (за 1-3 часа до срока); квадратными скобками обозначены град или гололедные отложения с указанием их диаметра в мм.
Облачность - указаны через наклонную черту общая и нижняя облачность в баллах и высота нижней границы облаков в метрах; квадратными скобками обозначены формы облаков: Ci - перистые, Cs - перисто-слоистые, Cc - перисто-кучевые, Ac - высококучевые, As - высокослоистые, Sc - слоисто-кучевые, Ns - слоисто-дождевые, Cu - кучевые, Cb - кучево-дождевые. Подробнее классификацию облаков см. в Атласе облаков (PDF).
T - Температура воздуха - температура, измеренная на высоте 2 м над землей.
Td - Температура точки росы - температура, при понижении до которой содержащийся в воздухе водяной пар достигнет насыщения.
f - Относительная влажность воздуха - влажноcть воздуха, измеренная на высоте 2 м над землей.
Te - Эффективная температура - температура, которую ощущает одетый по сезону человек в тени. Характеристика душности погоды. При расчете учитывается влияние влажности воздуха и скорости ветра на теплоощущения человека.
Tes - Эффективная температура на солнце - температура, которую ощущает человек, с поправкой на солнечный нагрев. Характеристика знойности погоды. Зависит от высоты солнца над горизонтом, облачности и скорости ветра. Ночью, в пасмурную погоду, а также при ветре 12 м/с и более поправка равна нулю.
P - Атмосферное давление - приведенное к уровню моря атмосферное давление.
Po - Атмосферное давление - измеренное на уровне метеостанции атмосферное давление.
Tmin - Минимальная температура - минимум температуры воздуха на высоте 2 м над землей.
Tmax - Максимальная температура - максимум температуры воздуха на высоте 2 м над землей.
R - Количество осадков - Количество выпавших осадков за период времени, мм. При наведении курсора мыши на число - период времени, за который выпало указанное количество осадков.
R24 - Количество осадков - Количество выпавших осадков за 24 часа, мм.
S - Снежный покров - Высота снежного покрова, см. При наведении курсора мыши на число - состояние снежного покрова и степень покрытия местности в баллах.